GEFSCGP_con_prob3kmehi_234.txt.gz
EHI
0 0 0 0 0 0 0 0 0 0 0 0 0 1 2 1 0 0 0 1 2 3 4 4 4 2 1 1 1 2 4 4 3 2 1 0 0 1 2 2 3 2 1 0
0 0 0 0 0 0 0 0 0 0 0 0 0 1 2 1 0 0 0 1 3 4 4 5 5 3 1 2 3 5 5 4 3 3 3 2 1 1 1 2 3 2 1 0
0 0 0 0 0 0 0 0 0 0 0 0 0 1 1 1 0 0 1 3 4 5 6 6 6 4 3 3 5 7 6 4 3 4 5 5 4 3 3 3 3 2 1 0
0 0 0 0 0 0 0 0 0 0 0 0 0 0 1 1 0 1 3 5 6 6 6 5 5 4 4 5 6 7 6 5 5 6 6 7 7 6 4 3 3 2 1 0
0 0 0 0 0 0 0 0 0 0 0 0 0 0 0 1 1 2 5 6 5 4 3 3 4 6 6 7 8 8 7 7 9 9 7 7 8 7 4 3 4 3 1 0
0 0 0 0 0 0 0 0 0 0 0 0 0 0 0 0 1 3 6 6 4 3 2 2 4 7 8 9 10 10 9 8 10 10 9 10 11 9 6 5 4 3 1 0
0 0 0 0 0 0 0 0 0 0 0 0 0 0 0 0 0 3 6 5 4 5 4 4 6 8 9 10 12 13 11 10 10 11 13 14 14 12 10 7 4 2 0 0
0 0 0 0 0 0 0 0 0 0 0 0 0 0 0 0 0 2 5 5 4 6 8 9 8 9 9 10 13 16 16 14 13 14 16 17 17 14 11 7 3 1 1 1
0 0 0 0 0 0 0 0 0 0 0 0 0 0 0 0 0 2 5 5 5 7 10 11 10 9 10 10 14 18 20 18 17 18 19 18 17 15 11 6 2 2 2 2
0 0 0 0 0 0 0 0 0 0 0 0 0 0 1 1 1 2 5 7 7 9 10 10 8 8 9 11 15 19 21 21 20 21 20 19 18 16 11 7 5 4 4 3
0 0 0 0 0 0 0 0 0 0 0 0 0 0 1 2 2 2 5 7 8 10 11 9 7 7 10 13 17 20 23 23 21 20 19 18 17 14 11 9 7 6 3 1
0 0 0 0 0 0 0 0 0 0 0 0 0 0 1 2 3 3 6 8 9 10 11 10 7 7 10 14 19 24 26 24 21 18 17 16 14 11 10 9 8 6 2 0
0 0 0 0 0 0 0 0 0 0 0 0 0 0 0 1 3 5 8 11 11 11 12 13 11 10 11 16 22 28 29 25 21 18 16 13 11 10 10 10 8 4 1 0
0 0 0 0 0 0 0 0 0 0 0 0 0 0 0 1 3 6 10 13 14 13 15 19 18 14 13 17 24 29 30 26 23 20 15 11 10 10 11 11 8 4 1 1
0 0 0 0 0 0 0 0 0 0 0 0 0 0 0 0 2 5 11 16 17 17 21 26 26 22 19 20 24 27 28 27 26 22 15 11 10 10 12 11 8 4 2 2
0 0 0 0 0 0 0 0 0 0 0 0 0 0 0 1 2 5 12 20 22 22 27 33 33 28 24 23 23 24 25 26 28 25 18 14 13 13 12 11 8 6 4 3
0 0 0 0 0 0 0 0 0 0 0 0 0 0 1 2 3 6 13 21 24 25 30 36 37 32 26 23 22 22 23 27 29 27 21 19 19 17 14 11 9 8 5 3
0 0 0 0 0 0 0 0 0 0 0 0 0 1 2 5 7 10 14 20 24 27 31 36 38 34 27 23 21 21 23 26 28 26 23 22 21 19 15 11 10 9 5 3
0 0 0 0 0 0 0 0 0 0 0 0 0 2 5 9 12 14 16 18 22 27 31 35 38 35 29 26 24 22 22 24 26 24 22 21 19 16 14 11 9 7 5 3
0 0 0 0 0 0 0 0 0 0 0 0 2 5 10 11 10 12 16 20 24 28 32 36 39 36 31 30 28 25 23 23 23 22 21 19 16 14 12 11 9 6 5 4
0 0 0 0 0 0 1 1 1 0 0 1 4 8 13 12 8 11 20 26 30 34 35 38 38 35 32 31 29 26 23 20 19 19 19 16 14 12 10 9 8 7 5 5
0 0 0 0 0 0 1 2 1 0 1 3 7 12 15 15 14 17 23 31 37 40 40 39 38 34 30 30 29 25 20 17 16 16 16 14 11 9 7 6 5 4 4 4
0 0 0 0 0 0 1 3 3 2 2 4 9 14 16 18 20 22 25 31 37 41 42 40 37 32 28 27 26 22 17 16 16 15 13 10 7 5 4 3 2 1 2 2
0 0 0 0 0 1 2 4 5 5 5 6 9 12 16 20 24 26 27 30 35 39 40 39 37 32 27 23 21 18 16 16 16 14 10 6 3 1 1 1 0 0 0 1
0 0 0 0 0 1 2 4 6 8 9 9 9 11 16 22 26 28 28 29 33 36 38 39 37 33 27 20 16 14 14 15 15 12 8 4 1 0 0 0 0 0 0 0
0 0 0 0 0 0 1 2 6 9 11 11 9 12 18 23 26 27 28 29 32 37 38 39 37 32 25 18 12 11 12 14 14 11 6 3 1 0 0 0 0 0 0 0

GEFSCGP_con_prob3kmehi_240.txt.gz
EHI
0 0 0 0 0 0 0 0 0 0 0 0 0 1 2 2 1 0 0 0 1 2 3 4 5 6 7 12 19 25 28 30 29 23 16 10 9 10 10 9 8 7 6 5
0 0 0 0 0 0 0 0 0 0 0 0 0 1 2 2 1 0 0 0 0 1 4 7 9 8 9 14 20 24 28 30 28 24 19 13 11 11 11 10 9 8 7 6
0 0 0 0 0 0 0 0 0 0 0 0 0 0 2 2 1 1 0 0 0 1 5 11 13 11 10 15 18 21 26 29 29 25 20 17 15 13 12 12 11 9 8 7
0 0 0 0 0 0 0 0 0 0 0 0 0 0 1 2 2 2 1 1 1 2 6 11 13 11 10 12 13 18 25 31 31 27 22 18 17 15 13 13 12 10 9 10
0 0 0 0 0 0 0 0 0 0 0 0 0 0 1 1 2 3 3 3 3 3 6 9 10 10 9 9 10 17 26 34 34 30 25 21 18 16 14 13 12 11 12 13
0 0 0 0 0 0 0 0 0 0 0 0 0 0 0 0 1 3 6 7 6 5 7 9 9 9 10 10 11 18 28 36 36 34 30 27 23 20 17 14 13 13 13 13
0 0 0 0 0 0 0 0 0 0 0 0 0 0 0 0 0 2 7 9 8 7 9 9 8 9 13 16 18 22 30 36 38 38 35 31 27 24 20 17 14 13 12 11
0 0 0 0 0 0 0 0 0 0 0 0 0 0 0 0 0 2 6 9 9 9 10 11 9 9 14 19 22 26 32 36 38 38 36 33 29 24 21 18 16 14 12 10
0 0 0 0 0 0 0 0 0 0 0 0 0 0 0 0 1 4 8 10 10 9 10 13 12 10 12 17 23 28 32 36 36 36 34 33 30 25 21 19 18 16 13 10
0 0 0 0 0 0 0 0 0 0 0 0 0 0 0 1 4 8 11 12 10 9 11 15 15 12 12 17 24 28 32 36 37 35 34 32 30 26 23 21 19 17 14 12
0 0 0 0 0 0 0 0 0 0 0 0 0 0 0 1 5 11 13 13 12 11 13 15 16 16 16 21 26 29 33 38 39 37 34 31 29 26 22 20 19 17 14 13
0 0 0 0 0 0 0 0 0 0 0 0 0 0 0 1 6 12 15 16 16 17 16 16 18 19 22 26 29 33 37 39 38 36 33 29 28 27 23 19 18 17 14 13
0 0 0 0 0 0 0 0 0 0 0 0 0 0 0 2 6 13 17 20 22 22 21 22 25 26 29 33 37 41 42 39 35 34 32 30 29 28 25 20 17 16 16 16
0 0 0 0 0 0 0 0 0 0 0 0 0 0 0 4 9 15 20 24 25 25 25 30 35 37 39 42 46 47 43 39 35 34 34 33 30 28 26 22 18 16 17 17
0 0 0 0 0 0 0 0 0 0 0 0 0 0 1 6 12 17 23 26 26 25 26 35 43 46 48 51 53 50 44 40 38 38 37 36 32 29 27 23 20 18 18 18
0 0 0 0 0 0 0 0 0 0 0 0 0 0 2 7 13 18 25 28 27 25 27 36 47 51 52 53 54 52 47 43 42 41 39 37 34 31 28 26 22 19 18 18
0 0 0 0 0 0 0 0 0 0 0 0 0 1 3 7 11 16 23 28 28 27 28 35 46 51 52 52 52 52 49 46 44 41 38 36 34 31 28 26 23 20 19 18
0 0 0 0 0 0 0 0 0 0 0 0 0 1 3 7 10 14 20 26 29 30 30 34 43 49 49 49 51 51 50 48 44 42 39 35 32 29 27 25 22 20 18 17
0 0 0 0 0 0 0 0 0 0 0 1 2 3 5 8 9 13 19 26 32 34 33 36 42 48 50 51 53 55 54 51 47 44 40 36 33 29 27 26 22 19 18 17
0 0 0 0 0 0 0 0 0 0 0 1 2 6 10 11 11 15 24 32 38 39 37 37 42 48 52 55 58 59 58 54 51 46 42 38 35 31 28 27 24 21 20 18
0 0 0 0 0 0 0 0 0 0 1 2 4 7 12 15 16 22 31 38 41 43 41 40 42 47 52 56 59 60 57 55 51 46 42 40 37 32 28 27 25 24 21 17
0 0 0 0 0 1 2 1 1 2 4 5 7 9 12 16 22 28 36 41 43 45 44 42 43 46 50 53 56 56 55 53 51 46 42 39 37 32 27 25 24 23 19 14
0 0 0 0 0 1 2 3 4 5 9 13 15 15 15 18 23 30 37 42 42 42 43 42 43 47 50 51 51 52 53 52 50 46 40 37 35 32 26 22 21 19 14 11
0 0 0 0 0 1 2 4 5 8 14 20 22 20 19 20 23 29 35 37 36 36 38 40 43 47 49 49 48 48 50 50 47 43 38 34 33 30 25 20 17 13 10 7
1 1 0 1 3 4 6 8 9 12 17 23 24 23 22 22 23 27 30 29 28 31 35 38 40 43 45 44 44 44 44 45 43 39 35 32 30 27 23 16 11 7 5 4
3 3 1 3 7 10 12 14 14 14 18 22 25 25 23 22 23 25 25 24 25 30 34 37 39 39 40 39 40 41 40 41 41 38 33 29 27 26 21 13 6 3 2 2

GEFSCGP_con_prob3kmehi_246.txt.gz
EHI
0 0 0 0 0 0 0 0 0 0 0 0 1 3 4 2 1 2 4 7 9 12 14 16 16 20 31 44 49 46 42 42 39 33 28 27 28 29 31 33 31 27 22 22
0 0 0 0 0 0 0 0 0 0 0 0 1 3 4 3 2 1 4 8 12 15 19 20 19 21 32 46 52 49 45 45 44 40 33 29 29 27 27 31 32 30 26 25
0 0 0 0 0 0 0 0 0 0 0 0 0 1 4 5 3 3 6 10 13 18 23 26 27 28 35 47 53 52 51 50 50 46 37 33 32 28 24 27 31 32 29 27
0 0 0 0 0 0 0 0 0 0 0 0 0 1 3 4 4 5 7 10 14 19 25 29 33 35 37 43 51 56 57 57 55 50 42 36 33 30 26 27 29 30 29 27
0 0 0 0 0 0 0 0 0 0 0 0 0 0 1 3 4 6 9 11 14 20 26 32 37 38 35 39 50 59 62 62 58 53 47 40 34 31 30 30 29 28 28 27
0 0 0 0 0 0 0 0 0 0 0 0 0 0 0 1 4 8 11 13 15 19 26 35 43 44 39 40 50 58 62 61 57 52 49 44 38 35 35 33 30 28 28 28
0 0 0 0 0 0 0 0 0 0 0 0 0 0 0 1 5 9 13 16 17 17 23 36 48 50 46 43 49 57 63 63 56 51 49 46 42 40 40 36 32 30 29 28
0 0 0 0 0 0 0 0 0 0 0 0 0 0 1 3 7 12 15 18 19 17 20 34 46 50 47 45 51 60 67 67 60 53 50 48 46 44 43 39 34 30 29 28
0 0 0 0 0 0 0 0 0 0 0 0 0 0 2 6 10 14 17 20 20 19 22 31 40 45 46 47 53 61 66 68 63 56 52 51 49 47 45 41 35 30 28 27
0 0 0 0 0 0 0 0 0 0 0 0 0 0 3 7 12 15 18 19 21 23 26 30 35 42 46 48 54 59 61 64 63 58 52 51 50 48 45 41 37 33 29 26
0 0 0 0 0 0 0 0 0 0 0 0 0 0 2 7 11 15 18 19 20 25 29 31 35 41 46 49 55 59 59 59 60 58 53 49 47 47 44 41 38 35 30 26
0 0 0 0 0 0 0 0 0 0 0 0 0 0 2 6 10 15 19 21 22 25 30 32 36 43 48 51 57 60 59 57 58 57 54 49 46 45 43 40 37 34 30 27
0 0 0 0 0 0 0 0 0 0 0 0 0 1 3 6 12 17 22 25 27 29 32 36 43 50 53 56 59 61 58 56 55 55 52 50 49 47 42 37 34 32 29 27
0 0 0 0 0 0 0 0 0 0 0 0 1 2 4 9 15 22 26 29 31 32 36 43 53 59 59 60 62 63 59 55 54 54 54 53 52 48 41 34 32 30 28 27
0 0 0 0 0 0 0 0 0 0 0 0 1 3 5 10 18 25 29 31 32 34 39 48 58 64 65 64 66 65 60 55 54 57 57 55 52 47 40 34 32 30 28 27
0 0 0 0 0 0 0 0 0 0 0 0 2 4 5 9 20 28 32 35 36 37 42 51 60 65 67 68 69 67 62 58 56 57 56 53 49 44 39 36 34 32 30 29
0 0 0 0 0 0 0 0 0 0 1 1 3 4 5 11 23 33 38 41 43 44 48 56 63 67 68 70 70 68 64 60 58 56 53 49 46 43 39 37 36 34 32 31
0 0 0 0 0 0 0 0 0 1 2 3 4 6 8 14 23 33 39 45 48 51 54 59 66 68 68 70 71 68 64 61 57 53 50 49 47 45 43 41 39 36 33 32
0 0 0 0 0 0 0 0 1 1 2 4 6 8 11 14 18 25 34 42 48 55 58 59 63 67 67 68 69 67 64 62 58 53 51 52 51 50 47 44 41 38 35 33
0 0 0 0 0 0 0 0 1 2 2 4 7 10 14 15 17 22 31 39 48 57 60 59 60 63 65 66 66 65 64 62 61 58 56 56 55 52 49 45 42 39 36 34
0 0 0 0 0 0 1 2 4 8 8 8 11 14 18 20 21 27 35 42 51 58 60 59 59 62 65 67 65 63 62 63 64 62 60 58 55 50 47 44 42 39 36 34
0 0 0 0 0 2 5 7 12 18 18 15 17 20 23 24 26 30 36 43 51 55 57 58 59 62 66 66 65 63 62 64 65 63 60 57 54 48 45 43 41 38 36 35
0 0 0 1 2 5 9 13 17 20 17 15 19 24 25 26 28 30 33 40 46 50 54 56 57 61 64 64 63 62 64 67 65 61 57 54 52 49 45 42 39 36 34 32
0 0 1 2 4 6 10 13 14 12 11 12 17 23 26 28 32 35 37 40 43 45 47 49 53 58 60 61 60 61 63 65 64 59 53 49 48 46 43 39 35 33 30 28
0 0 2 5 7 8 9 10 7 7 10 13 16 22 27 31 38 41 41 41 41 40 39 41 46 52 55 57 59 59 60 60 60 55 47 44 42 40 36 31 27 25 22 19
1 1 2 7 11 11 11 8 5 6 11 15 18 22 29 35 41 42 41 40 39 38 37 38 42 47 51 54 57 58 57 56 54 50 44 40 38 35 32 26 20 16 14 11

GEFSCGP_con_prob3kmehi_252.txt.gz
EHI
0 0 0 0 0 0 0 0 0 0 0 0 0 0 1 2 3 3 3 3 3 2 3 7 13 17 15 11 9 12 16 15 11 9 8 7 5 3 4 5 6 6 7 8
0 0 0 0 0 0 0 0 0 0 0 0 0 0 1 2 3 3 3 4 4 5 6 11 17 18 17 14 14 17 20 18 14 11 9 8 6 4 4 5 6 6 7 7
0 0 0 0 0 0 0 0 0 0 0 0 0 0 0 2 4 4 3 4 6 8 11 15 20 20 18 18 20 24 25 23 19 14 12 11 9 7 5 4 5 6 6 6
0 0 0 0 0 0 0 0 0 0 0 0 0 0 0 2 3 4 4 5 6 8 13 17 21 22 21 22 24 26 29 28 23 17 15 15 13 10 6 5 6 7 5 4
0 0 0 0 0 0 0 0 0 0 0 0 0 0 0 1 2 4 4 6 8 11 16 20 24 26 27 28 29 29 30 31 26 19 16 16 14 12 10 8 8 8 7 4
0 0 0 0 0 0 0 0 0 0 0 0 0 0 0 0 2 3 5 7 10 16 22 25 27 31 34 35 36 34 33 32 27 21 17 15 14 14 13 11 10 9 8 6
0 0 0 0 0 0 0 0 0 0 0 0 0 0 0 1 2 4 6 8 13 19 25 27 28 30 34 37 38 39 38 34 28 24 21 17 15 15 15 15 14 11 8 7
0 0 0 0 0 0 0 0 0 0 0 0 0 0 0 2 3 5 8 11 15 20 24 26 26 26 29 34 38 42 42 37 31 27 24 21 17 15 15 16 15 11 7 6
0 0 0 0 0 0 0 0 0 0 0 0 0 0 1 4 5 8 12 14 17 22 25 25 23 20 21 28 36 43 45 40 34 30 27 24 19 15 13 13 11 9 7 6
0 0 0 0 0 0 0 0 0 0 0 0 0 0 2 5 8 10 13 16 18 23 26 26 22 19 20 26 35 45 48 44 37 32 29 27 22 17 13 10 7 5 5 7
0 0 0 0 0 0 0 0 0 0 0 0 0 0 2 6 9 11 12 15 18 22 24 23 22 23 24 27 35 45 50 48 42 36 32 28 23 19 16 12 6 3 4 7
0 0 0 0 0 0 0 0 0 0 0 0 0 0 2 7 11 11 12 13 16 19 19 18 19 24 28 29 34 42 49 50 47 42 36 29 23 20 19 15 9 4 4 6
0 0 0 0 0 0 0 0 0 0 0 0 0 1 4 10 14 14 15 14 14 16 17 17 18 22 28 31 34 41 49 51 49 45 39 31 25 21 19 16 11 7 6 7
0 0 0 0 0 0 0 0 0 0 0 0 0 1 4 11 16 17 16 15 15 16 19 21 21 22 26 30 35 42 48 49 49 45 40 35 29 23 18 15 12 9 8 9
0 0 0 0 0 0 0 0 0 0 0 0 1 1 4 10 17 18 16 15 16 18 21 24 25 25 26 30 35 42 45 47 47 46 42 37 32 26 20 15 13 12 11 12
0 0 0 0 0 0 0 0 0 0 0 0 1 3 6 13 20 21 19 18 20 23 26 27 28 28 29 32 36 40 41 42 44 46 44 40 34 28 22 18 16 16 16 16
0 0 0 0 0 0 0 0 0 0 1 1 1 5 10 18 24 23 22 22 22 26 29 30 30 31 30 33 37 39 38 38 41 43 44 41 35 29 25 22 20 19 19 19
0 0 0 0 0 0 0 0 0 1 2 2 3 8 14 20 22 21 20 21 23 25 27 27 30 32 31 33 36 39 38 37 39 41 42 40 35 30 27 25 22 21 21 22
0 0 0 0 0 0 0 0 1 1 2 4 7 12 16 19 20 17 17 21 24 26 25 25 29 33 33 33 36 38 38 37 39 40 41 38 34 30 28 27 24 22 22 22
0 0 0 0 0 0 0 0 0 1 2 4 8 12 16 19 17 14 17 21 25 27 27 27 30 33 33 33 34 35 35 36 38 39 39 36 33 31 31 29 26 24 23 22
0 0 0 0 0 0 0 0 0 0 1 3 7 12 16 17 14 15 21 23 23 26 29 30 31 31 31 32 33 33 33 34 35 36 35 32 31 31 31 31 29 27 25 23
0 0 0 0 0 0 0 0 0 0 1 3 7 12 17 18 18 21 26 27 23 25 30 32 31 31 32 34 35 34 34 34 32 32 31 29 28 29 29 30 30 29 27 25
0 0 0 0 0 0 0 0 0 1 3 5 9 14 19 22 23 24 27 27 24 25 28 31 31 32 34 36 36 34 33 34 32 30 29 28 27 27 27 29 29 29 28 27
0 0 0 1 1 1 1 1 1 2 5 9 11 14 18 20 21 22 23 24 23 23 25 27 29 31 32 32 32 31 30 31 30 29 28 28 27 25 24 25 25 25 25 25
1 1 0 1 2 2 2 3 4 5 8 12 15 16 17 17 18 19 19 19 20 23 24 24 26 27 27 26 26 27 26 26 27 27 28 28 26 22 20 19 17 16 17 17
0 1 0 0 1 3 3 4 5 7 10 14 18 18 17 16 17 18 17 17 19 23 24 24 24 25 24 23 24 24 25 24 25 28 28 27 25 21 18 14 10 9 10 10

GEFSCGP_con_prob3kmehi_258.txt.gz
EHI
0 0 0 0 0 0 0 0 0 0 0 0 0 0 0 0 0 0 0 0 0 0 0 1 1 0 1 2 3 2 1 0 0 1 2 2 2 1 0 1 2 2 2 2
0 0 0 0 0 0 0 0 0 0 0 0 0 0 0 0 0 0 0 0 0 0 1 2 2 1 1 3 4 3 1 0 0 2 3 4 3 1 0 0 1 1 2 3
0 0 0 0 0 0 0 0 0 0 0 0 0 0 0 0 0 0 1 1 0 1 2 3 2 1 1 4 5 4 1 0 0 2 4 4 3 1 0 0 0 1 2 2
0 0 0 0 0 0 0 0 0 0 0 0 0 0 0 0 0 1 2 1 0 1 3 5 5 3 4 7 9 7 4 1 1 3 4 4 3 2 1 1 0 0 1 1
0 0 0 0 0 0 0 0 0 0 0 0 0 0 0 0 0 2 2 1 0 2 5 8 9 9 9 11 11 10 7 4 2 3 4 4 4 4 3 2 1 0 0 0
0 0 0 0 0 0 0 0 0 0 0 0 0 0 0 0 0 2 2 1 1 4 8 11 12 13 13 12 11 9 7 5 3 3 4 5 6 5 4 2 1 0 0 0
0 0 0 0 0 0 0 0 0 0 0 0 0 0 0 0 1 2 2 1 2 6 10 13 14 14 15 14 11 9 8 6 4 3 4 4 5 4 3 2 1 1 1 1
0 0 0 0 0 0 0 0 0 0 0 0 0 0 0 0 1 2 2 1 2 6 10 13 13 14 15 14 12 11 9 7 6 5 4 4 3 2 2 2 3 3 2 2
0 0 0 0 0 0 0 0 0 0 0 0 0 0 0 0 1 2 2 1 2 6 10 12 12 13 13 13 11 11 10 9 8 7 6 4 3 3 3 4 5 4 3 2
0 0 0 0 0 0 0 0 0 0 0 0 0 0 0 0 1 3 2 1 2 7 11 12 13 13 13 11 10 11 11 10 8 7 6 5 3 3 5 5 4 3 2 1
0 0 0 0 0 0 0 0 0 0 0 0 0 0 0 1 2 3 2 1 2 8 12 13 14 15 14 11 10 11 11 9 7 6 6 5 4 4 4 4 2 1 1 0
0 0 0 0 0 0 0 0 0 0 0 0 0 0 0 1 3 4 3 2 3 9 13 16 16 16 14 11 9 9 9 8 6 7 8 8 6 5 5 3 2 0 0 0
0 0 0 0 0 0 0 0 0 0 0 0 0 0 0 1 3 4 4 3 5 10 14 17 17 15 13 9 7 7 7 7 8 10 13 11 9 8 7 4 1 0 1 1
0 0 0 0 0 0 0 0 0 0 0 0 0 0 0 1 3 4 3 3 6 11 15 16 15 14 12 9 7 6 7 8 11 15 16 14 11 9 9 6 2 1 2 2
0 0 0 0 0 0 0 0 0 0 0 0 0 0 0 1 2 3 2 3 7 11 15 14 12 12 12 11 9 7 8 11 18 21 20 16 12 10 11 9 5 3 3 4
0 0 0 0 0 0 0 0 0 0 0 0 0 0 0 1 2 3 2 4 8 10 12 12 12 12 13 13 10 8 9 14 22 25 23 19 15 13 13 12 9 7 6 5
0 0 0 0 0 0 0 0 0 0 0 0 0 0 0 1 2 3 3 6 8 9 9 10 12 14 14 12 9 8 10 14 20 24 24 22 19 16 15 14 12 10 8 7
0 0 0 0 0 0 0 0 0 0 0 0 0 0 1 1 3 3 4 5 7 7 8 8 10 13 13 10 8 8 11 14 18 20 21 22 21 19 17 15 14 12 10 9
0 0 0 0 0 0 0 0 0 0 0 0 0 1 2 3 4 3 3 4 6 7 7 7 8 10 12 10 9 10 13 16 19 20 20 20 20 20 19 18 16 14 12 11
0 0 0 0 0 0 0 0 0 0 0 0 1 2 3 4 4 3 3 4 5 6 6 6 8 10 13 15 15 15 16 17 19 21 21 21 20 20 20 20 19 16 14 13
0 0 0 0 0 0 0 0 0 0 0 0 1 2 3 4 4 4 4 4 5 6 5 7 9 12 16 20 20 18 17 18 18 19 21 21 20 17 18 19 19 18 18 19
0 0 0 0 0 0 0 0 0 0 0 0 1 3 4 4 5 4 4 5 7 8 8 9 10 12 16 20 20 19 18 17 17 17 18 18 17 15 15 17 18 18 20 23
0 0 0 0 0 0 0 0 0 0 0 1 2 4 5 6 5 4 4 7 11 12 12 13 13 14 16 18 18 18 17 17 17 17 16 15 15 14 15 17 19 20 22 24
0 0 0 0 0 0 0 1 1 1 1 2 4 5 6 5 5 5 6 9 12 13 14 14 15 15 15 16 16 17 17 17 17 17 15 15 14 13 14 16 18 20 22 24
0 0 0 0 0 0 1 2 2 3 3 3 4 5 5 5 6 7 8 10 12 12 12 13 14 15 16 15 15 17 17 17 17 15 14 14 14 12 11 11 13 15 17 18
0 0 0 0 0 0 1 2 3 5 5 3 4 5 6 6 6 6 8 10 11 11 11 12 14 15 16 15 16 16 17 18 17 14 13 13 14 11 8 7 8 9 10 10

GEFSCGP_con_prob3kmehi_264.txt.gz
EHI
0 0 0 0 0 0 0 0 0 0 0 0 0 0 0 0 1 1 2 2 1 0 2 3 1 1 4 8 12 14 15 17 15 12 9 8 9 10 10 9 7 4 2 1
0 0 0 0 0 0 0 0 0 0 0 0 0 0 0 0 1 1 2 2 0 0 3 4 2 2 5 10 13 15 17 18 16 13 10 10 10 10 10 9 7 4 2 1
0 0 0 0 0 0 0 0 0 0 0 0 0 1 1 1 1 1 3 2 1 0 2 4 4 4 7 12 14 16 19 20 19 17 14 12 11 10 10 9 8 6 5 4
0 0 0 0 0 0 0 0 0 0 0 0 0 1 1 1 1 1 3 3 1 0 2 4 6 7 8 11 14 18 21 23 24 23 19 16 12 9 9 9 8 8 7 6
0 0 0 0 0 0 0 0 0 0 0 0 0 0 1 1 1 1 2 2 2 2 3 5 7 7 7 9 13 19 25 28 29 26 23 20 15 12 10 9 8 7 7 7
0 0 0 0 0 0 0 0 0 0 0 0 0 0 0 0 0 1 2 3 3 4 5 6 8 9 9 11 15 22 29 34 33 28 25 22 20 17 13 9 7 5 5 7
0 0 0 0 0 0 0 0 0 0 0 0 0 0 0 0 0 1 2 3 4 5 8 10 12 13 15 16 21 27 34 39 38 32 26 24 23 19 14 9 6 4 5 6
0 0 0 0 0 0 0 0 0 0 0 0 0 0 0 0 0 2 3 4 5 7 11 14 15 18 19 21 25 31 36 41 40 34 29 26 23 18 13 10 6 4 5 5
0 0 0 0 0 0 0 0 0 0 0 0 0 0 0 1 2 4 5 6 7 10 12 14 15 18 21 24 28 33 36 39 38 32 27 26 24 20 15 11 6 5 5 5
0 0 0 0 0 0 0 0 0 0 0 0 0 0 1 3 5 6 6 7 10 12 14 15 16 18 21 24 29 32 33 34 32 28 24 23 23 22 18 12 8 7 6 6
0 0 0 0 0 0 0 0 0 0 0 0 0 0 2 4 6 6 7 9 12 15 17 19 20 20 20 22 25 27 27 27 26 25 23 22 22 22 19 14 9 8 8 7
0 0 0 0 0 0 0 0 0 0 0 0 0 1 2 4 6 7 8 11 14 18 22 25 26 25 23 21 22 21 20 19 19 20 21 22 22 21 19 14 9 8 8 9
0 0 0 0 0 0 0 0 0 0 0 0 0 1 2 4 7 8 10 13 17 22 26 30 32 31 28 25 23 19 16 15 14 15 17 19 22 23 20 13 9 8 10 10
0 0 0 0 0 0 0 0 1 1 0 0 0 0 2 5 8 9 10 13 19 24 28 31 34 34 32 30 26 21 18 16 16 17 18 19 24 26 22 15 9 9 11 11
0 0 0 0 0 0 0 0 1 1 0 0 0 1 3 5 8 9 10 13 20 25 28 32 35 35 34 31 27 22 19 20 22 23 23 24 26 28 24 17 12 12 13 12
0 0 0 0 0 0 0 0 1 1 0 0 0 1 3 5 8 9 10 15 21 26 28 33 36 36 33 30 28 25 24 25 27 28 30 30 30 29 26 20 17 16 16 14
0 0 0 0 0 0 0 0 0 0 0 0 0 0 1 3 7 9 11 14 19 23 26 30 35 36 32 29 27 28 29 29 29 30 33 33 32 32 30 28 25 23 22 21
0 0 0 0 0 0 0 0 0 0 0 0 0 0 0 1 4 7 9 12 15 18 21 25 30 32 31 28 27 29 30 29 27 28 31 32 32 33 35 36 34 31 30 29
0 0 0 0 0 0 0 0 0 0 0 0 0 1 1 1 2 5 8 12 14 15 17 20 23 26 29 28 27 28 28 27 24 25 28 30 31 33 35 36 35 34 33 33
0 0 0 0 0 0 0 0 0 0 0 0 1 2 2 2 2 4 9 13 16 16 17 19 21 24 28 28 27 28 28 26 23 22 25 28 29 29 30 31 30 30 31 30
0 0 0 0 0 0 0 0 0 1 2 2 1 2 3 3 4 6 9 13 16 17 17 19 22 24 26 27 27 28 28 27 25 23 23 24 23 22 24 25 25 26 26 26
0 0 0 0 0 0 0 0 0 2 4 4 3 3 5 7 7 7 9 12 14 15 15 18 21 23 23 23 24 27 28 27 25 24 22 21 20 18 19 20 22 22 22 23
0 0 0 0 0 0 0 1 2 4 4 4 4 6 8 9 8 7 8 11 14 15 16 18 20 22 21 19 19 24 26 26 25 25 24 21 19 18 18 18 18 18 19 21
0 0 0 1 1 1 1 2 4 5 5 5 7 10 11 10 8 8 10 14 17 19 21 22 23 22 20 17 17 21 24 25 25 26 25 22 20 19 18 17 16 16 17 18
0 0 1 2 2 2 3 5 5 6 7 9 11 12 11 10 9 10 13 18 21 23 25 27 26 24 21 18 18 21 24 25 25 25 24 22 19 17 17 16 15 13 13 12
0 1 2 3 3 3 4 6 7 7 8 10 11 11 10 10 9 10 14 19 22 24 26 29 29 27 23 21 21 23 25 25 25 24 23 20 18 16 16 15 13 10 7 6

GEFSCGP_con_prob3kmehi_270.txt.gz
EHI
0 0 0 0 0 0 0 0 0 0 0 0 0 1 0 1 3 4 6 8 11 14 16 15 12 13 19 28 35 38 38 36 31 27 26 27 24 21 21 22 22 19 13 8
0 0 0 0 0 0 0 0 0 0 0 0 0 1 1 1 3 4 6 8 12 17 20 20 17 17 23 32 39 44 46 44 36 29 25 24 23 22 24 25 25 23 17 13
0 0 0 0 0 0 0 0 0 0 0 0 0 0 1 1 2 3 5 8 12 19 24 25 23 23 28 36 44 49 53 49 41 33 27 24 25 27 28 30 30 27 23 20
0 0 0 0 0 0 0 0 0 0 0 0 0 0 0 1 2 3 4 6 10 16 23 26 28 31 33 38 46 54 56 50 43 36 31 30 31 31 32 33 32 30 26 24
0 0 0 0 0 0 0 0 0 0 0 0 0 0 1 2 3 4 4 5 8 14 21 26 32 36 37 38 46 56 59 52 44 38 35 35 35 34 34 35 34 31 27 25
0 0 0 0 0 0 0 0 0 0 0 0 0 0 1 3 4 3 3 5 8 13 21 27 33 39 40 38 43 54 60 56 47 41 38 37 36 34 33 35 35 32 27 25
0 0 0 0 0 0 0 0 0 0 0 0 0 0 1 2 2 2 4 6 7 13 22 29 35 40 42 41 43 51 60 59 50 42 40 41 38 33 31 31 31 29 25 23
0 0 0 0 0 0 0 0 0 0 0 0 0 0 1 1 1 2 4 6 6 11 20 28 33 39 42 42 44 52 60 60 50 44 43 43 40 32 28 27 25 23 20 19
0 0 0 0 0 0 0 0 0 0 0 0 0 0 2 2 2 4 5 7 7 9 17 24 30 36 42 45 47 54 62 62 54 48 46 44 38 31 27 25 22 20 19 18
0 0 0 0 0 0 0 0 0 0 0 0 0 0 2 4 5 7 9 11 11 11 17 24 29 34 39 43 47 54 62 64 60 54 49 44 38 33 28 26 24 22 21 19
0 0 0 0 0 0 0 0 0 0 0 0 0 1 2 4 6 9 12 16 16 16 22 29 33 36 37 37 42 50 57 60 61 58 51 43 38 36 33 31 29 28 26 23
0 0 0 0 0 0 0 0 0 0 0 0 1 2 2 3 5 8 13 19 20 21 27 36 40 41 40 37 41 48 52 53 54 55 51 45 41 40 38 36 36 35 31 27
0 0 0 0 0 0 0 0 0 0 0 0 1 2 1 2 4 8 12 19 25 29 35 44 49 50 48 45 46 49 50 49 47 49 50 48 47 46 44 43 44 41 35 30
0 0 0 0 0 0 0 0 0 0 0 0 1 2 2 3 7 11 13 19 27 36 44 51 56 56 52 49 49 50 50 47 46 49 52 52 50 49 47 46 47 45 39 34
0 0 0 0 0 0 0 0 0 0 0 0 1 5 7 8 12 14 15 19 29 40 49 55 58 56 51 48 49 50 48 46 47 51 53 53 50 46 45 44 45 45 42 38
0 0 0 0 0 0 0 0 0 0 0 0 2 6 10 12 13 13 14 20 30 41 50 55 58 57 52 50 50 49 45 42 44 46 48 49 48 44 41 41 43 44 43 41
0 0 0 0 0 0 0 0 0 0 0 0 2 5 8 9 11 12 14 19 28 39 47 54 59 59 55 52 50 47 42 39 38 39 40 42 43 43 41 41 43 44 44 43
0 0 0 0 0 0 0 0 0 0 0 0 2 3 4 6 10 14 17 20 27 35 43 51 56 55 53 50 46 44 42 37 35 35 35 37 38 40 42 42 41 43 45 45
1 1 0 0 0 0 0 0 0 0 0 0 2 3 3 5 10 16 21 25 30 36 40 43 46 46 47 47 45 43 41 37 34 34 34 34 36 39 42 42 39 40 43 45
0 0 0 0 0 0 0 0 0 0 0 1 3 5 5 7 13 20 24 28 33 38 40 39 40 41 44 46 45 42 38 35 34 35 35 35 37 41 42 41 39 38 39 41
0 0 0 0 0 0 0 0 2 5 7 7 7 8 9 13 20 25 26 28 34 40 41 40 42 44 46 47 46 42 38 35 35 36 36 37 39 39 39 40 40 38 36 36
0 0 0 0 1 3 4 5 10 16 18 16 14 14 16 20 24 26 26 28 33 38 39 40 44 47 48 47 48 47 45 42 40 37 36 37 38 36 35 38 39 37 35 33
0 1 1 2 4 8 10 12 15 19 20 18 16 18 20 21 22 23 26 29 32 35 36 37 41 46 47 46 48 51 52 50 46 41 39 38 37 35 35 34 33 33 31 29
2 3 4 4 6 9 10 10 11 12 13 12 12 15 18 20 21 23 28 32 34 34 35 37 40 42 43 43 45 48 50 51 49 46 42 39 36 34 33 30 26 25 26 26
5 5 5 5 6 7 7 6 6 6 7 7 9 13 18 21 22 25 30 34 34 34 35 38 39 39 39 40 41 42 44 47 47 45 42 36 31 28 26 23 19 17 18 20
6 5 4 4 6 7 8 7 6 6 7 8 9 14 19 22 24 26 31 34 34 33 35 38 39 38 38 39 39 39 41 44 43 42 40 32 26 24 21 18 15 12 11 12

GEFSCGP_con_prob3kmehi_276.txt.gz
EHI
0 0 0 0 0 0 0 0 0 0 0 0 1 1 1 1 2 3 6 10 10 7 7 9 11 12 13 14 14 13 12 9 6 4 3 3 2 1 2 3 3 2 1 1
0 0 0 0 0 0 0 0 0 0 0 1 2 2 2 2 3 3 6 10 12 11 11 13 14 15 15 14 14 15 13 10 6 4 4 4 3 1 1 2 2 1 1 1
0 0 0 0 0 0 0 0 0 0 0 1 2 3 3 3 3 3 5 10 15 17 16 17 17 17 16 15 17 18 16 11 8 6 6 7 5 2 1 1 1 1 3 4
0 0 0 0 0 0 0 0 0 0 0 0 1 1 2 3 4 3 4 9 16 19 19 19 18 16 15 17 21 22 18 14 11 10 10 10 8 4 1 1 1 2 4 6
0 0 0 0 0 0 0 0 0 0 0 0 0 0 1 2 3 3 4 9 17 21 22 22 19 14 14 19 23 24 21 16 14 14 14 12 8 4 2 2 2 2 3 4
0 0 0 0 0 0 0 0 0 0 0 0 0 0 0 1 2 4 5 9 16 23 25 24 20 16 15 19 24 27 25 21 19 20 19 15 10 6 5 5 4 2 2 2
0 0 0 0 0 0 0 0 0 0 0 0 0 0 0 0 1 4 5 7 14 23 25 25 22 18 17 20 25 31 30 25 23 24 23 19 15 12 11 9 6 4 3 3
0 0 0 0 0 0 0 0 0 0 0 0 0 0 0 1 2 5 7 8 13 22 26 25 21 18 18 20 25 33 35 29 26 25 25 21 18 17 14 11 9 7 6 5
0 0 0 0 0 0 0 0 0 0 0 0 0 0 1 2 5 7 8 10 14 21 25 26 21 17 17 20 25 33 37 34 30 27 25 22 19 18 16 13 12 11 8 7
0 0 0 0 0 0 0 0 0 0 0 0 0 0 1 3 5 7 9 10 14 20 25 27 23 20 20 22 27 34 37 36 32 29 26 22 19 17 16 15 15 14 11 9
0 0 0 0 0 0 0 0 0 0 0 0 0 0 1 1 3 6 8 11 16 23 28 29 27 25 27 29 31 34 37 35 32 29 27 24 19 18 17 17 17 16 14 12
0 0 0 0 0 0 0 0 0 0 0 0 0 0 0 1 3 6 10 15 21 27 30 31 31 31 33 34 34 36 38 36 32 28 27 24 20 19 20 19 18 17 15 12
0 0 0 0 0 0 0 0 0 0 0 0 0 0 0 1 5 10 15 21 26 29 32 33 33 33 34 33 33 35 38 36 30 25 24 24 23 23 24 22 21 19 16 13
0 0 0 0 0 0 0 0 0 0 0 0 0 0 0 3 10 17 20 23 26 29 33 35 33 31 30 29 28 30 32 30 24 21 20 22 23 23 23 23 22 22 19 16
0 0 0 0 0 0 0 0 0 0 0 0 1 2 2 5 13 21 22 22 25 29 31 32 30 28 27 25 23 23 24 22 19 17 16 16 17 18 19 20 21 23 22 19
0 0 0 0 0 0 0 0 0 0 0 1 3 4 4 8 16 23 23 24 26 27 26 26 26 26 25 23 21 19 18 17 16 15 13 13 13 13 14 16 18 21 22 20
0 0 0 0 0 0 0 0 0 0 1 3 5 6 7 11 18 23 24 24 23 21 20 20 21 22 24 24 23 19 17 17 16 15 15 16 15 13 12 12 15 18 20 20
0 0 0 0 0 0 0 0 0 1 3 6 7 7 8 12 17 19 19 19 16 14 14 15 16 18 21 23 23 21 19 19 18 17 18 18 17 16 14 13 14 16 18 19
0 0 0 0 0 0 0 0 0 1 4 6 7 8 9 11 13 12 11 12 12 11 12 13 15 16 18 20 20 20 20 20 19 18 17 18 18 18 17 15 15 16 17 18
0 0 0 0 0 0 1 1 1 1 3 4 5 6 7 8 9 9 9 10 11 12 13 16 17 18 19 19 19 18 18 18 18 17 18 19 19 19 17 15 15 15 15 16
0 0 0 0 0 1 2 2 1 1 2 2 2 3 6 8 8 8 10 11 12 13 15 17 19 20 21 20 19 18 17 17 18 18 19 20 20 19 18 15 14 13 13 14
0 0 0 0 0 1 2 2 1 2 3 4 4 5 10 12 11 10 11 12 12 13 15 17 18 19 20 20 21 20 19 19 19 20 20 20 20 19 18 17 15 13 12 12
0 0 1 2 2 2 1 1 1 2 4 6 8 10 13 14 14 13 12 12 13 14 16 16 17 18 18 20 22 22 22 22 22 21 20 19 19 19 19 18 16 14 13 12
0 0 2 5 5 3 2 1 1 2 4 6 10 11 12 13 15 14 13 13 14 16 17 17 18 19 19 20 21 21 22 22 22 21 20 19 19 19 19 17 15 13 12 12
0 0 2 4 3 2 1 0 1 2 4 6 9 10 11 13 14 15 15 15 16 18 19 19 20 22 22 21 20 19 19 19 20 20 20 19 18 17 17 16 13 10 9 9
0 0 1 1 1 0 0 0 1 2 4 6 9 11 12 13 14 15 16 16 16 18 20 21 22 23 25 23 20 19 19 18 19 20 21 20 18 17 16 16 13 9 7 7

GEFSCGP_con_prob3kmehi_282.txt.gz
EHI
0 0 0 0 0 0 0 0 0 0 0 0 0 0 0 0 0 0 0 0 0 0 0 0 0 1 4 5 4 3 2 1 2 3 2 1 0 0 0 0 0 0 0 0
0 0 0 0 0 0 0 0 0 0 0 0 0 0 0 0 0 0 0 0 1 1 1 0 0 1 2 3 3 1 1 1 2 3 2 1 0 0 0 0 0 0 0 0
0 0 0 0 0 0 0 0 0 0 0 0 0 0 0 0 0 0 0 1 2 3 2 2 1 1 1 1 1 1 0 0 1 2 2 1 1 1 0 0 0 0 0 0
0 0 0 0 0 0 0 0 0 0 0 0 0 0 0 0 0 0 1 3 5 5 4 4 3 2 1 0 0 1 0 0 1 2 2 2 2 2 1 1 1 1 1 1
0 0 0 0 0 0 0 0 0 0 0 0 0 0 0 0 0 0 1 3 6 7 7 5 3 2 1 0 0 0 0 0 1 2 3 3 3 3 3 2 2 2 2 2
0 0 0 0 0 0 0 0 0 0 0 0 0 0 0 0 0 0 1 3 6 9 9 5 2 2 1 0 0 0 0 0 1 2 3 3 3 3 3 3 3 3 1 1
0 0 0 0 0 0 0 0 0 0 0 0 0 0 0 0 0 0 0 2 5 9 9 6 3 2 1 0 1 1 0 0 1 3 4 4 3 3 3 3 3 2 1 1
0 0 0 0 0 0 0 0 0 0 0 0 0 0 0 0 0 0 0 2 6 10 10 7 4 2 1 1 2 3 2 1 2 5 6 5 4 4 4 3 3 2 1 2
0 0 0 0 0 0 0 0 0 0 0 0 0 0 0 0 0 0 2 5 8 10 10 8 4 2 0 1 3 5 4 3 4 6 7 7 6 6 6 4 3 2 2 3
0 0 0 0 0 0 0 0 0 0 0 0 0 0 0 0 0 1 3 5 7 9 10 8 5 3 2 2 4 6 7 6 7 8 8 7 7 8 8 5 3 3 5 5
0 0 0 0 0 0 0 0 0 0 0 0 0 0 0 0 1 2 3 5 7 9 10 10 8 8 8 7 8 9 10 10 10 10 8 7 7 8 8 6 5 5 7 8
0 0 0 0 0 0 0 0 0 0 0 0 0 0 0 2 3 4 5 5 7 10 12 13 12 12 12 12 12 12 11 11 12 10 8 6 5 7 7 7 7 7 8 8
0 0 0 0 0 0 0 0 0 0 0 0 0 0 1 4 6 6 5 6 8 11 13 12 12 11 12 12 13 11 10 10 10 9 7 5 4 4 5 7 7 7 7 8
0 0 0 0 0 0 0 0 0 0 0 0 0 0 1 4 6 5 4 5 8 11 10 9 8 9 10 12 11 9 8 8 7 7 6 4 3 3 4 6 7 7 6 7
0 0 0 0 0 0 0 0 0 0 0 0 0 0 1 3 5 5 5 6 8 10 9 8 8 9 11 12 11 10 9 8 6 5 6 5 4 4 3 4 5 5 4 4
0 0 0 0 0 0 0 0 0 0 0 0 0 0 1 3 4 6 7 7 8 10 11 11 10 10 10 11 12 12 10 9 7 6 6 6 6 5 3 3 3 2 2 2
0 0 0 0 0 0 0 0 0 0 0 0 0 1 2 3 4 6 8 7 9 11 12 12 10 9 8 9 12 13 12 10 8 7 7 6 5 5 5 5 5 3 3 4
0 0 0 0 0 0 0 0 0 0 0 0 0 1 3 4 4 5 6 6 7 9 10 9 7 6 6 8 11 13 14 11 8 7 7 6 4 5 8 9 8 6 6 7
0 0 0 0 0 0 0 0 0 0 0 0 1 2 4 5 6 5 4 5 6 7 7 7 5 3 3 6 8 11 12 10 8 6 5 4 5 7 10 11 11 10 9 9
0 0 0 0 0 0 0 0 0 0 0 1 2 4 5 6 6 5 4 4 6 7 6 4 3 2 1 3 5 6 8 9 8 7 6 5 6 8 11 12 12 12 10 7
0 0 0 0 0 0 0 0 0 0 0 1 2 4 5 5 5 5 5 5 7 7 6 4 3 1 1 2 3 5 7 8 8 8 8 7 7 10 12 12 11 10 9 7
0 0 0 0 0 0 0 0 0 0 0 1 3 4 5 5 6 6 6 6 6 6 5 5 4 3 3 3 4 6 7 9 10 10 10 10 10 11 13 13 11 10 9 9
0 0 0 0 0 0 0 0 0 0 0 1 3 5 6 7 8 7 6 5 5 5 4 5 5 5 4 4 5 5 7 9 12 13 13 13 13 13 13 13 12 11 10 11
0 0 0 0 0 0 0 0 0 0 1 2 4 6 7 8 9 8 7 6 6 5 4 3 4 5 4 3 4 4 5 8 12 13 13 13 13 14 13 12 12 12 12 12
0 0 0 0 0 0 0 1 1 1 2 3 6 7 7 8 8 7 6 6 6 5 4 3 3 3 3 2 2 3 5 7 10 11 11 11 12 13 12 11 10 10 11 12
0 0 0 0 0 0 0 1 2 2 2 4 7 9 7 7 7 6 4 4 4 5 5 4 3 2 1 0 1 4 6 7 9 10 10 10 11 11 11 9 8 8 9 9

GEFSCGP_con_prob3kmehi_288.txt.gz
EHI
0 0 0 0 0 0 0 0 0 0 0 0 0 0 0 0 0 1 1 1 0 1 1 1 1 1 1 1 3 4 5 6 6 4 3 4 4 3 2 2 1 2 3 3
0 0 0 0 0 0 0 0 0 0 0 0 0 0 0 0 0 0 0 0 1 2 3 3 3 3 2 3 3 4 5 6 6 4 3 3 3 3 1 1 1 3 4 4
0 0 0 0 0 0 0 0 0 0 0 0 0 0 0 0 0 0 1 1 1 3 5 6 5 4 4 5 5 5 6 8 8 7 5 5 5 3 2 1 2 4 5 6
0 0 0 0 0 0 0 0 0 0 0 0 0 0 0 0 0 0 1 2 1 2 5 7 7 5 4 5 6 7 9 11 12 11 10 9 8 5 4 3 4 5 6 6
0 0 0 0 0 0 0 0 0 0 0 0 0 0 0 0 0 0 1 2 2 2 4 6 7 6 4 4 5 8 12 15 15 14 14 14 12 8 6 6 7 7 8 8
0 0 0 0 0 0 0 0 0 0 0 0 0 0 0 0 0 0 1 3 5 5 5 6 9 9 6 5 4 7 12 16 17 16 16 16 15 12 12 13 13 11 10 10
0 0 0 0 0 0 0 0 0 0 0 0 0 0 0 0 0 0 1 4 8 10 8 9 13 15 12 8 6 7 14 18 18 18 17 17 16 16 16 19 18 14 12 11
0 0 0 0 0 0 0 0 0 0 0 0 0 0 0 0 0 0 2 4 9 13 12 11 14 16 15 12 9 10 15 19 18 18 16 15 16 16 17 19 18 15 13 12
0 0 0 0 0 0 0 0 0 0 0 0 0 0 0 0 0 0 2 6 10 13 14 14 14 14 13 12 11 12 15 17 17 17 15 15 16 17 17 19 18 17 15 14
0 0 0 0 0 0 0 0 0 0 0 0 0 0 0 0 0 0 2 7 11 13 16 17 17 16 13 11 10 12 15 15 16 17 18 18 21 22 21 21 22 20 17 15
0 0 0 0 0 0 0 0 0 0 0 0 0 0 0 0 0 1 3 7 12 16 18 19 19 19 18 16 14 15 16 16 16 19 22 24 25 25 24 23 22 21 18 15
0 0 0 0 0 0 0 0 0 0 0 0 0 1 1 1 2 4 6 8 14 18 19 20 22 23 23 22 21 21 19 17 17 19 21 23 25 24 23 22 19 17 16 16
0 0 0 0 0 0 0 0 0 0 0 0 0 1 3 4 5 7 8 9 13 19 21 24 27 29 28 27 26 25 23 19 18 20 19 19 20 20 20 18 16 14 15 16
0 0 0 0 0 0 0 0 0 0 0 0 0 1 4 6 8 8 7 7 11 17 21 26 31 33 32 31 29 28 26 22 21 21 19 17 17 18 18 16 14 14 15 16
0 0 0 0 0 0 0 0 0 0 0 0 0 1 4 8 9 9 7 5 8 14 19 24 30 34 35 34 31 29 27 25 24 22 18 16 16 17 17 17 16 16 17 18
0 0 0 0 0 0 0 0 0 0 0 0 0 1 5 9 11 11 8 5 6 11 16 21 26 32 35 35 33 32 29 28 26 22 17 16 16 16 17 18 19 19 20 21
0 0 0 0 0 0 0 0 0 0 0 0 0 1 5 10 12 12 9 6 6 10 14 18 23 27 30 30 32 33 31 29 26 22 18 17 18 19 18 18 19 20 21 21
0 0 0 0 0 0 0 0 0 0 0 0 0 1 5 10 12 12 10 8 9 12 15 18 21 24 25 26 28 31 32 30 26 23 21 20 21 22 21 20 20 21 22 22
0 0 0 0 0 0 0 0 0 0 0 0 1 3 7 10 11 12 14 12 12 15 17 18 19 21 24 25 27 30 32 31 29 26 23 22 22 21 20 21 23 24 25 25
0 0 0 0 0 0 0 0 0 0 0 1 3 7 10 11 11 14 17 16 16 17 19 18 17 20 23 25 27 29 31 31 31 28 25 25 25 23 21 22 24 25 24 23
0 0 0 0 0 0 0 1 1 2 3 5 7 11 13 13 15 18 20 19 19 21 23 21 20 21 23 25 27 27 28 29 29 27 26 28 30 27 25 25 25 24 22 20
0 0 0 0 0 0 2 3 5 6 9 10 11 13 16 18 19 21 22 20 20 22 24 25 24 23 23 25 27 26 26 27 27 26 26 28 31 29 28 29 28 25 23 20
0 0 0 0 1 2 4 7 8 9 10 11 12 15 19 22 22 22 21 20 20 22 24 25 25 24 24 25 26 26 25 25 25 24 24 26 27 26 26 27 26 25 22 19
1 1 1 2 3 5 7 8 9 10 11 11 12 16 21 23 23 22 22 21 20 22 25 25 24 24 24 25 25 24 24 23 22 21 22 22 22 22 23 23 22 22 20 17
3 3 3 4 6 7 9 10 11 13 13 12 13 16 20 23 22 22 23 23 22 23 25 25 25 24 24 24 24 23 23 22 20 19 19 19 18 18 19 19 18 16 15 14
4 4 4 5 6 9 11 12 12 14 15 14 13 15 18 20 21 22 24 23 22 23 25 26 25 24 23 23 23 24 25 22 19 18 18 18 17 17 16 16 14 11 9 9

GEFSCGP_con_prob3kmehi_294.txt.gz
EHI
0 0 0 0 0 0 0 0 0 0 0 0 0 0 0 1 3 5 7 12 14 13 10 10 11 11 16 27 36 36 30 25 22 20 20 17 12 11 13 16 16 16 15 15
0 0 0 0 0 0 0 0 0 0 0 0 0 0 0 1 2 4 7 13 17 17 16 15 13 13 17 27 35 35 32 27 22 19 19 15 11 11 12 16 20 20 17 17
0 0 0 0 0 0 0 0 0 0 0 0 0 0 1 1 1 3 6 12 18 23 25 22 18 16 19 27 33 34 34 31 25 20 17 13 12 11 11 16 23 24 20 19
0 0 0 0 0 0 0 0 0 0 0 0 0 1 1 1 1 2 4 8 15 22 28 28 24 20 20 25 30 35 38 37 31 25 19 16 14 13 13 17 21 23 22 21
0 0 0 0 0 0 0 0 0 0 0 0 0 1 1 1 0 2 3 5 9 17 26 30 28 23 20 21 27 36 43 42 36 30 25 22 19 16 16 18 21 24 26 25
0 0 0 0 0 0 0 0 0 0 0 0 0 1 1 1 1 2 4 4 6 14 24 30 31 27 22 22 27 38 46 43 38 34 30 27 24 21 20 21 22 25 27 27
0 0 0 0 0 0 0 0 0 0 0 0 0 1 3 3 2 4 6 6 8 14 22 30 33 31 27 26 32 43 49 44 36 32 32 31 29 26 24 24 25 25 25 25
0 0 0 0 0 0 0 0 0 0 0 0 0 2 4 4 3 4 5 7 10 14 20 27 32 32 30 30 36 46 51 47 37 32 33 34 33 30 28 27 27 26 25 24
0 0 0 0 0 0 0 0 0 0 0 0 1 3 5 4 3 2 4 8 11 15 21 27 30 31 33 35 40 46 52 50 43 38 37 36 35 33 33 32 28 26 25 24
0 0 0 0 0 0 0 0 0 0 0 0 1 3 4 3 3 3 5 9 13 17 23 27 29 31 34 37 42 48 53 53 49 45 40 37 36 37 36 33 27 25 25 24
0 0 0 0 0 0 0 0 0 0 0 0 0 1 1 2 3 4 6 11 15 18 23 27 30 33 35 37 42 49 53 52 49 46 42 38 37 37 35 30 26 25 25 23
0 0 0 0 0 0 0 0 0 0 0 0 0 0 1 2 3 6 9 13 17 20 23 28 34 37 37 38 43 49 52 50 47 45 43 39 37 34 30 26 24 24 24 24
0 0 0 0 0 0 0 0 0 0 0 0 0 1 2 3 4 7 11 16 21 25 28 34 41 44 43 44 48 51 52 50 47 44 40 37 35 30 25 22 22 23 25 25
0 0 0 0 0 0 0 0 0 0 0 0 0 1 3 5 7 10 13 15 19 25 31 38 46 49 49 51 54 53 51 50 49 44 38 36 35 29 24 22 22 23 25 25
0 0 0 0 0 0 0 0 0 0 0 0 0 2 5 7 9 11 13 13 16 23 29 36 44 50 54 55 55 53 50 49 50 46 40 38 37 33 29 27 26 25 24 23
0 0 0 0 0 0 0 0 0 0 0 0 0 3 7 11 11 12 13 14 16 23 28 33 41 49 54 54 53 52 51 50 50 48 43 41 40 37 35 34 32 29 26 25
1 1 0 0 0 0 0 0 0 1 1 2 2 5 10 14 14 13 16 18 20 24 29 33 40 47 49 48 47 49 49 50 50 47 42 39 39 38 38 36 34 32 30 27
2 3 1 0 0 0 1 1 2 2 3 4 5 7 10 14 15 16 21 26 27 28 31 35 38 41 41 41 43 45 46 49 49 45 40 38 37 36 35 35 34 35 33 30
3 4 2 0 0 0 1 2 2 2 3 5 7 8 9 12 14 19 27 31 32 32 33 34 33 35 37 41 44 45 45 46 46 44 42 41 39 36 34 35 37 38 37 35
3 4 2 0 0 1 2 2 1 2 4 6 8 9 11 14 17 24 32 35 34 35 34 32 31 34 38 42 44 44 43 42 42 42 43 44 43 40 37 36 37 39 40 40
1 2 1 0 1 2 3 3 3 6 10 11 12 14 18 23 27 33 37 38 38 37 32 31 34 37 39 41 42 43 42 41 40 39 40 42 43 40 38 36 36 37 39 39
0 0 1 1 3 5 7 8 9 13 15 15 17 22 27 31 35 37 38 38 39 37 32 31 34 37 38 39 41 42 41 39 37 36 36 38 39 36 35 35 35 35 36 37
0 0 2 4 5 9 13 14 14 14 14 15 20 26 32 34 35 36 36 36 37 36 33 30 30 34 36 38 40 40 38 36 35 35 34 35 35 33 33 34 35 35 35 35
0 1 4 7 8 10 13 15 15 13 12 14 18 23 28 31 32 33 34 35 35 36 34 30 30 33 36 38 39 37 34 33 33 34 33 32 31 31 32 33 33 31 31 30
1 3 6 8 8 8 10 12 14 13 12 13 14 17 22 27 28 29 33 34 34 35 34 32 32 33 34 35 36 35 34 32 32 32 31 30 28 28 29 29 26 23 22 21
1 4 7 9 9 8 9 11 12 12 12 13 14 15 20 24 25 26 30 33 34 34 34 34 34 33 33 32 33 33 33 32 31 31 30 28 26 26 26 24 19 15 13 13

GEFSCGP_con_prob3kmehi_300.txt.gz
EHI
0 0 0 0 0 0 0 0 0 0 0 0 0 1 2 4 4 4 5 8 8 7 8 11 13 13 10 7 6 6 4 3 3 3 2 1 1 1 2 1 0 1 3 5
0 0 0 0 0 0 0 0 0 0 0 0 0 1 2 3 4 5 6 9 11 10 11 13 15 16 14 11 8 6 5 4 4 4 3 2 2 2 2 2 1 2 4 5
0 0 0 0 0 0 0 0 0 0 0 0 0 0 1 2 4 6 8 11 14 16 17 16 17 20 20 16 12 8 6 6 6 6 5 5 5 4 3 3 3 3 5 6
0 0 0 0 0 0 0 0 0 0 0 0 0 0 1 2 5 8 9 11 14 19 21 20 19 21 23 22 18 12 9 9 9 9 8 8 7 7 6 5 4 4 4 5
0 0 0 0 0 0 0 0 0 0 0 0 0 0 1 2 5 9 11 12 15 20 23 23 21 21 23 25 23 16 13 12 12 11 10 9 7 6 6 6 5 4 3 3
0 0 0 0 0 0 0 0 0 0 0 0 0 0 0 2 5 9 12 15 17 20 23 23 22 20 20 24 24 20 16 15 14 13 12 10 8 7 7 7 5 3 2 3
0 0 0 0 0 0 0 0 0 0 0 0 0 0 1 4 6 9 13 16 20 21 22 22 20 19 19 22 24 22 18 17 17 17 17 14 12 10 9 8 7 6 4 3
0 0 0 0 0 0 0 0 0 0 0 0 0 1 4 6 9 11 13 18 23 24 23 21 20 20 21 23 26 25 21 18 18 18 18 17 14 12 11 11 10 8 6 5
0 0 0 0 0 0 0 0 0 0 0 0 0 1 5 9 11 12 14 19 25 26 24 22 21 22 23 24 28 29 26 20 17 16 17 16 14 13 13 12 11 9 7 6
0 0 0 0 0 0 0 0 0 0 0 0 0 1 5 10 13 14 15 18 24 28 26 23 23 24 25 27 29 32 31 26 20 16 14 14 14 15 14 12 10 8 6 6
0 0 0 0 0 0 0 0 0 0 0 0 0 0 3 9 14 15 16 18 25 30 27 23 24 26 29 30 31 32 32 31 25 18 13 13 14 15 14 11 9 8 7 7
0 0 0 0 0 0 0 0 0 0 0 0 0 0 2 8 13 14 16 20 24 27 24 21 22 25 29 31 30 29 30 30 26 19 14 12 12 12 12 11 10 9 8 8
0 0 0 0 0 0 0 0 0 0 0 0 0 0 2 6 10 13 16 20 21 21 21 20 20 22 25 27 27 27 26 25 23 19 15 12 11 11 11 11 12 12 11 11
0 0 0 0 0 0 0 0 0 0 0 0 0 0 2 4 7 11 16 18 20 20 20 20 19 20 22 24 26 25 22 22 21 20 17 14 12 11 11 11 13 15 15 14
0 0 0 0 0 1 1 0 0 0 0 0 0 0 1 2 5 10 17 20 23 23 22 21 20 20 21 23 24 23 22 22 22 21 19 16 13 13 12 12 14 16 15 14
0 0 0 0 0 1 2 1 1 1 0 0 0 0 1 2 6 12 19 26 29 27 25 23 21 22 23 23 24 23 22 22 22 22 20 18 16 16 16 15 16 16 14 13
0 0 0 0 0 1 2 2 2 2 2 2 2 2 5 7 10 14 21 28 31 30 27 24 22 22 23 24 25 24 21 21 22 22 20 19 19 19 19 17 17 16 15 14
0 0 0 0 0 0 1 1 1 2 4 4 3 5 10 14 15 17 21 25 29 30 27 22 19 17 18 21 23 21 20 19 20 21 20 20 20 20 21 19 18 17 17 15
0 0 0 0 0 0 0 1 1 1 4 5 5 8 15 18 19 19 20 23 27 28 23 16 13 11 12 16 19 18 18 18 19 19 20 20 20 20 21 21 19 18 17 16
0 0 0 0 0 0 1 2 1 1 2 4 6 11 16 19 20 19 21 24 26 24 17 11 9 9 11 15 17 17 17 17 17 16 16 17 17 18 19 20 20 19 18 16
0 0 0 0 0 0 1 2 2 1 1 4 7 12 16 19 20 21 23 24 22 19 14 10 11 13 16 17 17 17 15 15 13 11 11 12 13 14 15 16 18 19 18 16
0 0 1 1 0 0 1 2 2 2 4 7 9 14 18 21 21 22 24 23 18 15 12 12 13 16 18 18 18 17 14 11 9 8 8 9 12 13 13 15 18 20 20 19
1 1 2 2 1 0 1 2 3 5 9 11 13 16 19 19 19 20 22 20 17 14 12 11 12 14 16 17 18 17 13 10 9 8 8 9 12 14 15 17 19 21 21 21
3 2 3 3 2 2 4 5 5 8 12 14 15 16 18 17 14 14 16 17 17 15 13 12 12 12 13 15 16 17 15 13 12 11 10 10 12 14 16 18 19 19 20 20
3 2 3 5 5 5 5 7 8 11 13 14 13 13 15 15 11 9 10 12 14 14 13 12 11 11 11 13 15 17 17 16 14 13 12 11 11 14 15 15 15 14 14 15
1 1 4 7 7 6 6 7 10 13 14 13 12 12 14 13 10 8 8 8 11 12 12 12 11 9 10 12 14 16 18 17 16 14 12 10 10 13 14 13 10 8 8 8

GEFSCGP_con_prob3kmehi_306.txt.gz
EHI
0 0 0 0 0 0 0 0 0 0 0 0 0 0 1 3 5 5 3 1 0 0 1 3 4 4 4 4 4 2 1 0 0 0 0 0 0 0 0 0 0 0 1 1
0 0 0 0 0 0 0 0 0 0 0 0 0 0 0 2 4 5 3 1 0 0 1 3 5 6 6 5 4 2 1 0 0 0 0 0 0 0 0 0 0 0 0 1
0 0 0 0 0 0 0 0 0 0 0 0 0 0 0 1 2 3 2 0 0 0 0 2 5 6 6 5 3 1 0 1 1 1 1 0 0 0 0 0 0 0 0 1
0 0 0 0 0 0 0 0 0 0 0 0 0 0 0 0 1 1 1 1 0 0 0 2 5 7 6 4 2 1 1 2 3 4 4 2 0 0 0 0 0 0 0 1
0 0 0 0 0 0 0 0 0 0 0 0 0 0 0 0 0 0 1 2 1 0 0 1 4 6 7 4 2 2 2 3 5 8 8 5 2 1 0 0 1 1 0 1
0 0 0 0 0 0 0 0 0 0 0 0 0 0 0 0 0 1 1 2 2 1 0 1 3 6 7 6 4 2 3 4 6 9 10 7 5 3 2 1 2 2 1 0
0 0 0 0 0 0 0 0 0 0 0 0 0 0 0 1 1 2 1 1 1 2 1 1 4 7 9 9 6 4 4 4 6 8 8 7 6 5 4 3 3 3 1 1
0 0 0 0 0 0 0 0 0 0 0 0 0 0 1 2 3 3 1 1 2 3 3 3 5 8 9 10 9 7 6 6 6 5 4 4 5 5 5 4 2 2 1 1
0 0 0 0 0 0 0 0 0 0 0 0 0 0 1 2 3 2 1 1 2 4 4 4 6 8 9 10 12 11 9 7 5 3 1 1 3 4 4 2 2 2 2 1
0 0 0 0 0 0 0 0 0 0 0 0 0 0 1 1 2 1 0 1 3 4 5 5 7 9 11 13 15 14 11 7 5 3 1 2 3 3 3 3 3 4 4 2
0 0 0 0 0 0 0 0 0 0 0 0 0 0 0 1 2 1 0 2 4 5 5 6 8 11 15 18 18 15 11 9 6 5 4 5 5 5 4 3 4 5 5 5
0 0 0 0 0 0 0 0 0 0 0 0 0 0 0 2 3 3 2 3 5 5 4 5 6 9 13 17 17 14 11 9 8 7 7 7 6 6 4 4 4 5 6 6
0 0 0 0 0 0 0 0 0 0 0 0 0 0 1 4 6 4 4 5 6 6 5 5 5 7 9 13 13 11 8 7 6 6 6 7 6 6 5 4 4 4 5 6
0 0 0 0 0 0 0 0 0 0 0 0 0 0 1 3 6 6 7 8 9 10 10 9 8 7 8 9 9 7 5 4 3 4 5 6 6 6 6 5 4 4 4 5
0 0 0 0 0 0 0 0 0 0 0 0 0 0 0 2 6 8 10 12 14 15 16 15 13 10 8 7 6 5 3 2 3 3 4 5 5 6 6 5 4 4 5 5
0 0 0 0 1 1 0 0 0 0 0 0 0 0 0 2 6 9 12 14 17 18 20 21 19 14 8 6 5 5 5 5 5 5 6 5 5 5 5 4 4 4 6 7
0 0 0 0 1 1 0 0 0 0 0 0 0 0 1 3 6 9 11 13 15 17 20 21 19 15 8 5 4 5 7 7 8 8 8 7 5 5 5 5 5 6 8 10
0 0 0 0 1 1 0 0 0 0 0 0 0 0 2 5 8 10 10 11 13 16 18 16 14 11 7 4 3 4 6 7 9 10 10 8 6 5 4 6 7 7 9 10
0 0 0 0 0 0 0 0 0 0 0 0 1 2 4 7 9 10 10 11 12 14 13 10 8 6 4 3 3 3 5 6 7 9 8 7 6 5 4 5 6 6 7 7
0 0 0 0 0 0 0 0 0 0 0 0 2 4 5 6 8 9 9 10 10 9 8 6 4 4 3 3 2 2 4 4 5 5 5 5 6 7 5 4 4 5 5 6
0 0 0 0 0 0 0 0 0 0 0 0 1 3 4 4 6 8 9 9 8 6 4 3 2 2 3 3 2 2 4 4 3 3 3 4 5 7 7 5 4 4 4 5
0 0 0 0 0 0 0 1 0 0 0 1 1 3 3 4 7 9 11 12 11 7 4 3 2 1 1 2 2 2 4 5 4 3 3 4 5 7 7 6 5 4 3 4
0 0 0 0 0 0 0 0 0 0 1 2 3 3 3 6 10 12 12 14 13 9 5 3 2 1 1 1 1 2 3 5 4 3 4 4 5 6 7 7 6 5 5 5
0 0 0 0 0 0 0 0 0 0 1 3 3 3 4 7 11 13 12 12 11 9 6 4 3 3 3 2 2 2 3 4 3 3 4 5 6 7 8 9 9 9 9 9
0 0 0 0 0 0 0 1 1 2 2 3 3 4 6 9 11 11 9 8 6 6 5 5 4 3 3 3 3 3 4 3 2 2 3 5 6 8 9 9 8 9 9 9
0 0 0 0 0 0 1 2 3 3 3 3 3 4 7 10 10 8 6 5 4 4 4 4 2 1 1 2 3 4 3 2 1 1 2 3 6 7 8 7 6 5 6 5